DW0117 Weather Reports


Display with metric or nautical units.
time (UTC)temp
F
wind
direction
speed
MPH
gust
MPH
rain 1hr
in
rain 24hr
in
rain mn
in
humidity
%
barometer
mb
20190921031449 66 0 0.0 0.0 0.00 0.00 0.00 60 1012.3
20190921030948 66 0 0.0 0.0 0.00 0.00 0.00 60 1012.2
20190921030449 67 0 0.0 0.0 0.00 0.00 0.00 59 1012.0
20190921025948 67 0 0.0 0.0 0.00 0.00 0.00 58 1012.0
20190921025448 68 0 0.0 0.0 0.00 0.00 0.00 58 1011.9
20190921024949 68 0 0.0 0.0 0.00 0.00 0.00 56 1011.7
20190921024448 69 0 0.0 0.0 0.00 0.00 0.00 56 1011.7
20190921023948 69 0 0.0 0.0 0.00 0.00 0.00 55 1011.7
20190921023449 70 0 0.0 0.0 0.00 0.00 0.00 55 1011.7
20190921022948 70 0 0.0 0.0 0.00 0.00 0.00 54 1011.7
20190921022448 71 0 0.0 0.0 0.00 0.00 0.00 51 1011.6
20190921021948 72 0 0.0 0.0 0.00 0.00 0.00 52 1011.5
20190921021448 72 0 0.0 0.0 0.00 0.00 0.00 52 1011.4
20190921020949 73 0 0.0 0.0 0.00 0.00 0.00 48 1011.3
20190921020448 74 0 0.0 0.0 0.00 0.00 0.00 48 1011.3
20190921015948 75 0 0.0 0.0 0.00 0.00 0.00 47 1011.3
20190921015449 75 0 0.0 0.0 0.00 0.00 0.00 46 1011.1
20190921014948 76 0 0.0 0.0 0.00 0.00 0.00 44 1011.1
20190921014448 76 0 0.0 0.0 0.00 0.00 0.00 40 1011.1
20190921013948 77 235 0.0 1.0 0.00 0.00 0.00 40 1011.0
20190921013448 77 235 0.0 1.0 0.00 0.00 0.00 39 1011.0
20190921012949 77 236 0.0 1.0 0.00 0.00 0.00 39 1010.9
20190921012449 77 236 0.0 1.0 0.00 0.00 0.00 39 1011.0
20190921011948 78 224 0.0 6.0 0.00 0.00 0.00 39 1011.0
20190921011449 78 225 1.0 6.0 0.00 0.00 0.00 38 1011.1
20190921010948 78 230 1.0 5.0 0.00 0.00 0.00 38 1010.9
20190921010449 78 237 2.0 5.0 0.00 0.00 0.00 37 1011.0
20190921005948 79 245 2.0 5.0 0.00 0.00 0.00 36 1010.9
20190921005449 80 249 2.0 7.0 0.00 0.00 0.00 36 1011.0
20190921004948 80 242 2.0 7.0 0.00 0.00 0.00 35 1011.0
20190921004449 81 233 3.0 5.0 0.00 0.00 0.00 34 1011.1
20190921003948 81 244 4.0 8.0 0.00 0.00 0.00 35 1011.0
20190921003449 81 246 4.0 9.0 0.00 0.00 0.00 35 1011.1
20190921002948 81 241 4.0 9.0 0.00 0.00 0.00 34 1011.3
20190921002448 81 235 4.0 9.0 0.00 0.00 0.00 34 1011.2
20190921001949 81 241 4.0 10.0 0.00 0.00 0.00 34 1011.2
20190921001448 81 245 3.0 10.0 0.00 0.00 0.00 33 1011.2
20190921000952 81 243 3.0 10.0 0.00 0.00 0.00 34 1011.3
20190921000448 81 244 4.0 8.0 0.00 0.00 0.00 34 1011.3
20190920235948 81 246 4.0 9.0 0.00 0.00 0.00 33 1011.4
20190920235449 81 245 4.0 9.0 0.00 0.00 0.00 34 1011.3
20190920234948 81 244 4.0 9.0 0.00 0.00 0.00 33 1011.3
20190920234449 82 243 4.0 9.0 0.00 0.00 0.00 34 1011.5
20190920233948 82 242 4.0 8.0 0.00 0.00 0.00 33 1011.4
20190920233449 82 242 4.0 10.0 0.00 0.00 0.00 33 1011.4
20190920232949 82 245 4.0 10.0 0.00 0.00 0.00 33 1011.4
20190920232449 82 246 4.0 10.0 0.00 0.00 0.00 33 1011.4
20190920231949 82 245 4.0 10.0 0.00 0.00 0.00 33 1011.5
20190920231449 82 244 4.0 10.0 0.00 0.00 0.00 33 1011.6
20190920230948 82 244 4.0 10.0 0.00 0.00 0.00 34 1011.6
20190920230449 82 247 4.0 10.0 0.00 0.00 0.00 33 1011.7
20190920225948 82 247 4.0 10.0 0.00 0.00 0.00 33 1011.8
20190920225449 82 247 4.0 10.0 0.00 0.00 0.00 33 1011.7
20190920224948 82 247 4.0 9.0 0.00 0.00 0.00 33 1011.8
20190920224449 81 248 4.0 9.0 0.00 0.00 0.00 34 1011.7
20190920223949 81 245 5.0 9.0 0.00 0.00 0.00 34 1011.8
20190920223449 82 245 5.0 13.0 0.00 0.00 0.00 34 1011.8
20190920222949 81 250 4.0 13.0 0.00 0.00 0.00 34 1011.9
20190920222449 82 248 4.0 11.0 0.00 0.00 0.00 34 1011.9
20190920221949 82 244 4.0 10.0 0.00 0.00 0.00 33 1011.9
20190920221449 81 246 3.0 10.0 0.00 0.00 0.00 33 1012.0
20190920220949 81 249 3.0 12.0 0.00 0.00 0.00 33 1012.0
20190920220449 81 248 4.0 12.0 0.00 0.00 0.00 33 1012.1
20190920215949 81 246 5.0 11.0 0.00 0.00 0.00 33 1012.1
20190920215449 81 244 5.0 11.0 0.00 0.00 0.00 34 1012.1
20190920214949 81 243 4.0 12.0 0.00 0.00 0.00 34 1012.1
20190920214449 81 241 4.0 12.0 0.00 0.00 0.00 33 1012.2
20190920213949 81 240 4.0 10.0 0.00 0.00 0.00 33 1012.2
20190920213449 81 247 4.0 10.0 0.00 0.00 0.00 33 1012.2
20190920212949 81 252 4.0 10.0 0.00 0.00 0.00 33 1012.0
20190920212448 81 249 5.0 11.0 0.00 0.00 0.00 33 1012.2
20190920211949 80 247 5.0 11.0 0.00 0.00 0.00 33 1012.2
20190920211450 80 248 4.0 10.0 0.00 0.00 0.00 33 1012.3
20190920210949 80 245 4.0 10.0 0.00 0.00 0.00 33 1012.1
20190920210449 80 244 5.0 13.0 0.00 0.00 0.00 33 1012.1
20190920205949 80 248 4.0 13.0 0.00 0.00 0.00 34 1012.2
20190920205448 80 244 4.0 13.0 0.00 0.00 0.00 34 1012.2
20190920204949 80 241 4.0 9.0 0.00 0.00 0.00 35 1012.3
20190920204450 80 244 4.0 11.0 0.00 0.00 0.00 35 1012.5
20190920203948 79 244 5.0 11.0 0.00 0.00 0.00 35 1012.4
20190920203449 79 242 5.0 10.0 0.00 0.00 0.00 34 1012.5
20190920202949 79 246 5.0 11.0 0.00 0.00 0.00 34 1012.7
20190920202449 79 249 5.0 11.0 0.00 0.00 0.00 33 1012.7
20190920201949 79 248 5.0 11.0 0.00 0.00 0.00 34 1012.7
20190920201449 79 248 5.0 10.0 0.00 0.00 0.00 36 1012.8
20190920200949 78 245 5.0 11.0 0.00 0.00 0.00 36 1013.0
20190920200449 78 243 5.0 11.0 0.00 0.00 0.00 36 1013.1
20190920195950 78 244 5.0 10.0 0.00 0.00 0.00 35 1013.1
20190920195449 78 247 5.0 10.0 0.00 0.00 0.00 35 1013.3
20190920194949 78 248 5.0 11.0 0.00 0.00 0.00 36 1013.3
20190920194449 78 244 5.0 11.0 0.00 0.00 0.00 35 1013.3
20190920193949 78 242 5.0 10.0 0.00 0.00 0.00 36 1013.3
20190920193449 78 242 6.0 12.0 0.00 0.00 0.00 37 1013.3
20190920192949 77 244 6.0 12.0 0.00 0.00 0.00 37 1013.5
20190920192449 77 245 5.0 12.0 0.00 0.00 0.00 38 1013.4
20190920191949 78 241 5.0 12.0 0.00 0.00 0.00 38 1013.4
20190920191449 78 244 5.0 12.0 0.00 0.00 0.00 39 1013.5
20190920190949 77 243 4.0 12.0 0.00 0.00 0.00 40 1013.6
20190920190449 77 238 4.0 12.0 0.00 0.00 0.00 39 1013.6
20190920185949 77 241 4.0 11.0 0.00 0.00 0.00 40 1013.6
20190920185450 77 245 5.0 11.0 0.00 0.00 0.00 40 1013.6
20190920184949 76 246 5.0 10.0 0.00 0.00 0.00 41 1013.7
20190920184449 76 246 4.0 10.0 0.00 0.00 0.00 41 1013.8
20190920183950 76 246 4.0 11.0 0.00 0.00 0.00 41 1013.7
20190920183449 76 245 4.0 11.0 0.00 0.00 0.00 42 1013.7
20190920182950 76 247 4.0 11.0 0.00 0.00 0.00 42 1013.7
20190920182449 75 247 4.0 11.0 0.00 0.00 0.00 41 1013.7
20190920181950 75 244 5.0 10.0 0.00 0.00 0.00 42 1013.7
20190920181449 75 243 5.0 11.0 0.00 0.00 0.00 43 1013.8
20190920180949 75 244 4.0 11.0 0.00 0.00 0.00 42 1013.8
20190920180450 74 245 3.0 10.0 0.00 0.00 0.00 43 1013.8
20190920175949 74 243 2.0 9.0 0.00 0.00 0.00 42 1013.8
20190920175449 74 241 2.0 8.0 0.00 0.00 0.00 42 1013.9
20190920174949 74 248 2.0 10.0 0.00 0.00 0.00 43 1013.8
20190920174450 73 250 2.0 10.0 0.00 0.00 0.00 43 1013.8
20190920173949 73 249 2.0 9.0 0.00 0.00 0.00 43 1013.8
20190920173450 73 251 2.0 9.0 0.00 0.00 0.00 43 1013.8
20190920172949 72 253 2.0 8.0 0.00 0.00 0.00 44 1013.8
20190920172450 72 253 2.0 8.0 0.00 0.00 0.00 44 1013.8
20190920171949 71 250 1.0 8.0 0.00 0.00 0.00 45 1013.9
20190920171450 70 222 0.0 4.0 0.00 0.00 0.00 46 1013.9
20190920170949 70 206 0.0 4.0 0.00 0.00 0.00 47 1013.9
20190920170450 69 204 1.0 4.0 0.00 0.00 0.00 47 1014.0
20190920165950 69 212 1.0 3.0 0.00 0.00 0.00 48 1014.0
20190920165449 68 202 1.0 5.0 0.00 0.00 0.00 50 1014.0
20190920164949 66 199 0.0 5.0 0.00 0.00 0.00 51 1014.0
20190920164450 65 123 0.0 1.0 0.00 0.00 0.00 53 1014.1
20190920163949 65 0 0.0 0.0 0.00 0.00 0.00 56 1014.1
20190920163450 64 0 0.0 0.0 0.00 0.00 0.00 58 1014.2
20190920162950 63 0 0.0 0.0 0.00 0.00 0.00 58 1014.3
20190920162449 62 0 0.0 0.0 0.00 0.00 0.00 57 1014.3
20190920161950 62 0 0.0 0.0 0.00 0.00 0.00 59 1014.4
20190920160949 60 0 0.0 0.0 0.00 0.00 0.00 66 1014.4
20190920160449 59 0 0.0 0.0 0.00 0.00 0.00 67 1014.3
20190920155949 58 0 0.0 0.0 0.00 0.00 0.00 68 1014.3
20190920155449 58 0 0.0 0.0 0.00 0.00 0.00 70 1014.3
20190920154950 57 0 0.0 0.0 0.00 0.00 0.00 72 1014.3
20190920154450 56 0 0.0 0.0 0.00 0.00 0.00 74 1014.4
20190920153949 55 0 0.0 0.0 0.00 0.00 0.00 76 1014.3
20190920153450 54 0 0.0 0.0 0.00 0.00 0.00 78 1014.3
20190920152949 54 0 0.0 0.0 0.00 0.00 0.00 79 1014.3
20190920152450 53 0 0.0 0.0 0.00 0.00 0.00 80 1014.3
20190920151949 53 0 0.0 0.0 0.00 0.00 0.00 79 1014.4
20190920151449 53 0 0.0 0.0 0.00 0.00 0.00 80 1014.4
20190920150950 52 0 0.0 0.0 0.00 0.00 0.00 81 1014.4
20190920150449 52 0 0.0 0.0 0.00 0.00 0.00 81 1014.4
20190920145950 52 0 0.0 0.0 0.00 0.00 0.00 81 1014.4
20190920145449 51 0 0.0 0.0 0.00 0.00 0.00 81 1014.4
20190920144950 51 0 0.0 0.0 0.00 0.00 0.00 81 1014.4
20190920144450 51 0 0.0 0.0 0.00 0.00 0.00 82 1014.4
20190920143949 51 0 0.0 0.0 0.00 0.00 0.00 82 1014.3
20190920143450 51 0 0.0 0.0 0.00 0.00 0.00 82 1014.2
20190920142950 51 0 0.0 0.0 0.00 0.00 0.00 81 1014.2
20190920142449 51 0 0.0 0.0 0.00 0.00 0.00 81 1014.2
20190920141950 51 0 0.0 0.0 0.00 0.00 0.00 81 1014.2
20190920141450 51 0 0.0 0.0 0.00 0.00 0.00 81 1014.0
20190920140951 51 0 0.0 0.0 0.00 0.00 0.00 81 1014.0
20190920140451 50 0 0.0 0.0 0.00 0.00 0.00 82 1014.0
20190920135950 50 0 0.0 0.0 0.00 0.00 0.00 81 1013.9
20190920135450 50 0 0.0 0.0 0.00 0.00 0.00 81 1013.9
20190920134949 50 0 0.0 0.0 0.00 0.00 0.00 81 1013.9
20190920134450 50 0 0.0 0.0 0.00 0.00 0.00 82 1013.8
20190920133949 51 0 0.0 0.0 0.00 0.00 0.00 82 1013.9
20190920133450 51 0 0.0 0.0 0.00 0.00 0.00 81 1013.9
20190920132950 51 0 0.0 0.0 0.00 0.00 0.00 81 1013.8
20190920132450 51 0 0.0 0.0 0.00 0.00 0.00 81 1013.9
20190920131950 51 0 0.0 0.0 0.00 0.00 0.00 81 1013.9
20190920131449 51 0 0.0 0.0 0.00 0.00 0.00 82 1013.8
20190920130950 51 0 0.0 0.0 0.00 0.00 0.00 82 1013.7
20190920130450 51 0 0.0 0.0 0.00 0.00 0.00 81 1013.6
20190920125950 51 0 0.0 0.0 0.00 0.00 0.00 81 1013.6
20190920125450 51 0 0.0 0.0 0.00 0.00 0.00 81 1013.6
20190920124950 51 0 0.0 0.0 0.00 0.00 0.00 80 1013.6
20190920124450 51 0 0.0 0.0 0.00 0.00 0.00 80 1013.6
20190920123950 51 0 0.0 0.0 0.00 0.00 0.00 80 1013.5
20190920123450 51 0 0.0 0.0 0.00 0.00 0.00 80 1013.4
20190920122950 51 0 0.0 0.0 0.00 0.00 0.00 80 1013.4
20190920122450 52 0 0.0 0.0 0.00 0.00 0.00 80 1013.3
20190920121950 52 0 0.0 0.0 0.00 0.00 0.00 80 1013.3
20190920121450 52 0 0.0 0.0 0.00 0.00 0.00 80 1013.5
20190920120949 52 0 0.0 0.0 0.00 0.00 0.00 80 1013.4
20190920120451 52 0 0.0 0.0 0.00 0.00 0.00 80 1013.3
20190920115950 52 0 0.0 0.0 0.00 0.00 0.00 80 1013.2
20190920115450 52 0 0.0 0.0 0.00 0.00 0.00 79 1013.1
20190920114950 52 0 0.0 0.0 0.00 0.00 0.00 79 1013.1
20190920114450 52 0 0.0 0.0 0.00 0.00 0.00 79 1013.1
20190920113950 52 0 0.0 0.0 0.00 0.00 0.00 78 1013.0
20190920113450 52 0 0.0 0.0 0.00 0.00 0.00 78 1013.0
20190920112950 52 0 0.0 0.0 0.00 0.00 0.00 78 1013.0
20190920112450 52 0 0.0 0.0 0.00 0.00 0.00 78 1012.8
20190920111950 52 0 0.0 0.0 0.00 0.00 0.00 77 1012.9
20190920111450 52 0 0.0 0.0 0.00 0.00 0.00 77 1012.9
20190920110950 52 0 0.0 0.0 0.00 0.00 0.00 77 1012.8
20190920110451 52 0 0.0 0.0 0.00 0.00 0.00 77 1012.8
20190920105951 52 0 0.0 0.0 0.00 0.00 0.00 78 1012.8
20190920105451 53 0 0.0 0.0 0.00 0.00 0.00 78 1012.7
20190920104950 53 0 0.0 0.0 0.00 0.00 0.00 78 1012.7
20190920104451 53 0 0.0 0.0 0.00 0.00 0.00 77 1012.6
20190920103950 53 0 0.0 0.0 0.00 0.00 0.00 76 1012.6
20190920103450 53 0 0.0 0.0 0.00 0.00 0.00 77 1012.5
20190920102950 53 0 0.0 0.0 0.00 0.00 0.00 77 1012.6
20190920102451 53 0 0.0 0.0 0.00 0.00 0.00 77 1012.6
20190920101950 53 0 0.0 0.0 0.00 0.00 0.00 77 1012.6
20190920101450 53 0 0.0 0.0 0.00 0.00 0.00 77 1012.6
20190920100950 54 0 0.0 0.0 0.00 0.00 0.00 77 1012.6
20190920100450 54 0 0.0 0.0 0.00 0.00 0.00 76 1012.6
20190920095951 54 0 0.0 0.0 0.00 0.00 0.00 76 1012.6
20190920095450 54 0 0.0 0.0 0.00 0.00 0.00 75 1012.6
20190920094950 54 0 0.0 0.0 0.00 0.00 0.00 74 1012.6
20190920094450 54 0 0.0 0.0 0.00 0.00 0.00 74 1012.7
20190920093951 55 0 0.0 0.0 0.00 0.00 0.00 73 1012.7
20190920093450 55 0 0.0 0.0 0.00 0.00 0.00 73 1012.7
20190920092950 55 0 0.0 0.0 0.00 0.00 0.00 73 1012.7
20190920092450 55 0 0.0 0.0 0.00 0.00 0.00 73 1012.8
20190920091950 55 0 0.0 0.0 0.00 0.00 0.00 73 1012.8
20190920091451 56 0 0.0 0.0 0.00 0.00 0.00 71 1012.8
20190920090950 56 0 0.0 0.0 0.00 0.00 0.00 72 1012.8
20190920090450 56 96 0.0 1.0 0.00 0.00 0.00 70 1012.9
20190920085950 56 96 0.0 1.0 0.00 0.00 0.00 71 1012.8
20190920085450 56 0 0.0 0.0 0.00 0.00 0.00 71 1012.9
20190920084951 56 0 0.0 0.0 0.00 0.00 0.00 71 1012.8
20190920084450 56 0 0.0 0.0 0.00 0.00 0.00 70 1012.8
20190920083951 57 134 0.0 1.0 0.00 0.00 0.00 70 1012.8
20190920083450 57 142 0.0 1.0 0.00 0.00 0.00 70 1012.7
20190920082951 57 151 0.0 1.0 0.00 0.00 0.00 70 1012.6
20190920082450 57 201 0.0 1.0 0.00 0.00 0.00 71 1012.6
20190920081951 56 201 0.0 1.0 0.00 0.00 0.00 71 1012.6
20190920081450 56 0 0.0 0.0 0.00 0.00 0.00 74 1012.6
20190920080951 56 0 0.0 0.0 0.00 0.00 0.00 73 1012.6
20190920080451 56 0 0.0 0.0 0.00 0.00 0.00 73 1012.6
20190920075951 56 0 0.0 0.0 0.00 0.00 0.00 72 1012.6
20190920075450 56 0 0.0 0.0 0.00 0.00 0.00 72 1012.6
20190920074950 56 0 0.0 0.0 0.00 0.00 0.00 73 1012.7
20190920074450 56 0 0.0 0.0 0.00 0.00 0.00 72 1012.6
20190920073950 56 0 0.0 0.0 0.00 0.00 0.00 72 1012.6
20190920073451 57 0 0.0 0.0 0.00 0.00 0.00 71 1012.6
20190920072950 57 0 0.0 0.0 0.00 0.00 0.00 70 1012.6
20190920072451 57 0 0.0 0.0 0.00 0.00 0.00 70 1012.5
20190920071950 58 0 0.0 0.0 0.00 0.00 0.00 69 1012.5
20190920071450 58 0 0.0 0.0 0.00 0.00 0.00 70 1012.5
20190920070951 58 0 0.0 0.0 0.00 0.00 0.00 71 1012.4
20190920070451 58 0 0.0 0.0 0.00 0.00 0.00 72 1012.5
20190920065951 57 0 0.0 0.0 0.00 0.00 0.00 70 1012.3
20190920065451 57 0 0.0 0.0 0.00 0.00 0.00 71 1012.3
20190920064951 58 0 0.0 0.0 0.00 0.00 0.00 71 1012.2
20190920064451 58 0 0.0 0.0 0.00 0.00 0.00 71 1012.2
20190920063951 58 201 0.0 1.0 0.00 0.00 0.00 71 1012.2
20190920063450 58 201 0.0 1.0 0.00 0.00 0.00 72 1012.1
20190920062950 58 0 0.0 0.0 0.00 0.00 0.00 71 1012.0
20190920062451 57 0 0.0 0.0 0.00 0.00 0.00 71 1012.0
20190920061950 57 0 0.0 0.0 0.00 0.00 0.00 71 1012.0
20190920061452 57 0 0.0 0.0 0.00 0.00 0.00 71 1012.0
20190920060950 57 0 0.0 0.0 0.00 0.00 0.00 72 1011.9
20190920060451 58 0 0.0 0.0 0.00 0.00 0.00 72 1011.9
20190920055951 58 0 0.0 0.0 0.00 0.00 0.00 72 1012.0
20190920055451 58 0 0.0 0.0 0.00 0.00 0.00 72 1012.0
20190920054951 58 0 0.0 0.0 0.00 0.00 0.00 71 1012.0
20190920054451 58 0 0.0 0.0 0.00 0.00 0.00 70 1012.0
20190920053951 58 0 0.0 0.0 0.00 0.00 0.00 70 1011.9
20190920053450 58 0 0.0 0.0 0.00 0.00 0.00 71 1011.9
20190920052951 58 0 0.0 0.0 0.00 0.00 0.00 71 1011.8
20190920052450 58 0 0.0 0.0 0.00 0.00 0.00 70 1011.6
20190920051951 59 0 0.0 0.0 0.00 0.00 0.00 70 1011.6
20190920051451 59 0 0.0 0.0 0.00 0.00 0.00 70 1011.6
20190920050951 59 0 0.0 0.0 0.00 0.00 0.00 69 1011.5
20190920050451 59 0 0.0 0.0 0.00 0.00 0.00 68 1011.5
20190920045951 59 0 0.0 0.0 0.00 0.00 0.00 68 1011.5
20190920045451 60 0 0.0 0.0 0.00 0.00 0.00 68 1011.6
20190920044952 60 0 0.0 0.0 0.00 0.00 0.00 68 1011.6
20190920044451 60 0 0.0 0.0 0.00 0.00 0.00 69 1011.5
20190920043951 60 0 0.0 0.0 0.00 0.00 0.00 69 1011.4
20190920043450 60 0 0.0 0.0 0.00 0.00 0.00 69 1011.4
20190920042951 61 0 0.0 0.0 0.00 0.00 0.00 68 1011.4
20190920042451 61 0 0.0 0.0 0.00 0.00 0.00 68 1011.4
20190920041951 61 0 0.0 0.0 0.00 0.00 0.00 67 1011.4
20190920041451 61 0 0.0 0.0 0.00 0.00 0.00 66 1011.4
20190920040951 62 0 0.0 0.0 0.00 0.00 0.00 66 1011.4
20190920040451 62 0 0.0 0.0 0.00 0.00 0.00 66 1011.3
20190920035951 62 0 0.0 0.0 0.00 0.00 0.00 66 1011.3
20190920035451 62 0 0.0 0.0 0.00 0.00 0.00 67 1011.3
20190920034951 62 0 0.0 0.0 0.00 0.00 0.00 66 1011.3
20190920034451 63 0 0.0 0.0 0.00 0.00 0.00 68 1011.3
20190920033951 63 0 0.0 0.0 0.00 0.00 0.00 66 1011.2
20190920033450 63 0 0.0 0.0 0.00 0.00 0.00 65 1011.1
20190920032951 64 0 0.0 0.0 0.00 0.00 0.00 65 1011.1
20190920032451 64 0 0.0 0.0 0.00 0.00 0.00 65 1011.0
20190920031950 64 0 0.0 0.0 0.00 0.00 0.00 64 1011.0